カタログに戻る

STARLINK-32712

運用中通信VLEO
NORAD 62433·PAYLOAD·🇺🇸 United States

打ち上げ Dec 29, 2024 から Vandenberg Space Force Base

Loading…

次のパス (今後24時間)

TLE

最新Source: CelesTrak SupGP

元期: Sep 15, 2026, 03:38 UTC

1 62433C 24251B   26258.15187500  .00019259  00000+0  56916-3 0  2585
2 62433  53.1576 174.4219 0001164 101.5027  52.4916 15.34372319    19

AllMySatでSTARLINK-32712をリアルタイム追跡

Download on the App Store